Wind_Speed
12 12 13 14 15 15 15 15 14 14 13 12 12 11 11 11 11 12 12 13 13 14 15 15 16 17 17 17 17 18 18 18 19 19 18 19 19 20 20 21 21 22 22
11 12 13 14 14 15 15 15 15 15 15 14 14 14 14 14 15 15 15 16 16 17 17 18 19 20 20 20 20 20 20 21 21 22 22 22 22 22 23 23 24 24 24
11 11 12 13 14 15 15 16 16 16 16 16 17 17 17 17 18 18 18 18 19 20 20 21 21 22 22 22 22 23 23 23 23 24 24 24 24 25 25 25 26 26 26
11 12 12 13 14 15 16 17 17 18 18 19 19 19 20 20 20 21 21 21 22 22 23 23 24 24 24 25 25 25 25 26 26 26 26 27 27 27 27 28 28 27 27
12 13 13 14 15 16 17 18 19 19 20 20 21 22 22 22 23 23 24 24 24 25 25 26 26 27 27 27 27 27 27 27 28 28 28 28 29 29 29 30 30 29 30
14 15 15 16 17 18 19 19 20 21 22 22 23 23 24 25 25 26 26 26 27 28 28 28 29 29 30 29 29 29 29 30 30 30 30 31 31 31 31 32 32 32 32
15 16 17 18 19 19 21 22 22 23 24 24 25 26 26 27 28 28 28 29 30 30 30 30 31 31 31 31 32 32 32 32 32 32 32 33 33 34 34 34 34 34 34
17 17 17 19 21 21 22 23 24 24 25 26 27 28 29 29 29 30 30 31 31 31 31 31 32 32 33 33 34 34 34 34 34 35 34 34 34 35 36 36 36 36 36
18 19 19 21 22 23 24 25 26 27 28 28 29 30 30 31 30 31 32 32 32 32 33 33 33 34 35 35 36 35 35 35 36 37 37 37 37 38 38 38 39 39 38
21 21 22 23 23 24 25 26 28 28 28 28 28 29 30 31 31 33 34 34 34 34 34 35 35 36 37 37 37 38 37 38 39 39 40 40 40 41 41 42 42 42 41
23 24 24 24 24 25 25 27 28 28 29 30 31 31 32 32 33 34 35 35 36 36 36 36 37 38 38 39 40 40 40 41 42 42 43 43 43 44 44 45 45 45 45
25 26 26 27 26 26 27 27 28 29 31 32 33 33 34 34 35 36 37 37 38 39 39 39 39 41 41 42 42 43 43 44 45 45 46 46 47 47 47 48 48 49 49
26 27 27 27 27 28 29 29 31 32 33 33 34 35 36 37 37 38 39 39 40 41 41 42 43 44 45 45 45 46 47 47 48 49 49 49 50 50 50 51 51 52 52
28 28 28 28 29 30 31 32 33 34 34 35 36 36 38 38 39 40 41 42 43 44 44 45 46 47 48 48 49 49 50 51 51 51 51 51 52 53 53 53 54 54 54
29 30 30 30 30 32 33 34 35 35 36 36 37 38 39 40 41 42 43 44 44 45 46 47 48 49 49 50 51 52 52 53 53 53 54 54 55 55 55 56 56 56 55
32 33 33 34 34 35 36 37 38 37 38 39 39 40 41 42 42 44 44 45 46 46 47 48 50 50 51 51 52 52 53 54 54 55 55 55 55 56 56 56 55 55 54
32 33 34 35 36 37 38 38 38 39 39 40 41 42 43 44 45 46 46 46 46 47 48 49 50 50 50 51 51 52 53 54 55 56 56 56 56 56 55 55 55 54 53
32 33 34 35 36 37 38 38 40 40 41 41 41 42 43 44 45 46 45 46 48 48 49 49 50 50 51 51 52 53 54 54 55 55 55 55 55 54 54 53 52 51 51
32 33 34 35 37 38 39 40 40 41 42 42 43 44 45 46 47 48 48 49 49 49 49 49 50 50 51 52 52 53 53 53 53 52 52 51 51 51 50 50 49 48 48
33 35 36 38 39 41 41 42 43 44 44 45 46 47 47 48 49 49 49 49 50 50 50 50 50 50 51 51 51 51 51 51 50 50 49 48 48 47 47 46 46 46 45
36 37 38 40 41 42 43 43 44 45 46 46 46 47 47 48 48 49 50 50 50 50 50 50 49 49 49 50 49 49 48 48 48 47 46 46 45 44 44 43 42 42 41
37 38 40 41 42 43 44 45 45 45 46 46 46 47 47 47 48 49 49 49 49 48 48 48 49 48 48 47 47 47 46 46 46 46 45 44 43 41 41 40 40 39 38
38 40 41 42 43 43 44 45 45 45 45 46 46 47 47 48 48 48 48 48 48 47 47 47 47 46 46 46 45 45 44 43 43 43 42 41 40 39 39 38 37 37 36
40 41 42 42 43 44 44 44 44 45 46 46 46 46 46 46 46 46 45 45 45 44 44 44 44 44 43 43 43 43 41 40 39 38 37 36 35 35 35 35 35 35 34
40 41 42 42 43 43 43 44 44 44 44 44 44 44 44 44 44 43 42 42 41 41 41 41 41 41 41 40 38 37 36 35 35 34 34 33 32 32 32 31 31 30 30
40 41 42 42 42 42 42 42 41 40 40 40 39 39 39 40 39 39 38 38 38 38 38 38 38 37 36 34 32 31 31 31 31 31 30 29 28 28 28 27 27 26 26
Wind_Direction
184 187 192 196 197 199 199 202 205 210 216 224 232 236 241 249 257 262 267 274 280 285 288 291 294 296 296 296 296 296 296 296 298 299 299 298 299 299 298 297 297 298 297
191 195 199 201 202 204 206 210 216 222 229 235 241 246 252 257 263 267 269 275 280 283 286 289 291 294 294 294 294 293 293 293 295 296 297 296 297 298 297 296 295 295 295
201 204 207 209 211 214 217 221 227 232 237 243 249 254 258 262 267 270 273 277 280 282 285 288 289 291 292 292 291 291 290 290 291 293 294 294 294 295 296 295 295 294 294
211 214 216 219 221 224 228 231 235 240 245 250 255 259 262 265 268 270 274 277 279 282 284 286 287 288 289 289 289 289 288 288 289 290 290 291 292 292 293 293 293 292 292
223 225 228 229 232 234 238 241 243 247 251 255 259 262 264 266 268 270 273 276 279 281 283 284 285 286 287 287 287 287 287 288 288 289 288 289 290 290 290 290 291 290 290
235 238 238 239 241 243 246 248 251 253 255 258 261 265 267 268 270 271 273 276 278 280 282 283 283 284 285 285 285 286 286 286 287 287 287 287 287 287 288 289 289 288 288
242 245 246 247 248 250 252 254 256 258 259 261 264 266 268 270 271 273 274 276 277 278 280 281 281 283 283 284 285 285 286 285 285 285 285 286 285 286 286 287 287 287 286
248 251 254 253 254 257 258 258 258 260 262 263 266 268 268 271 272 273 274 276 277 278 280 281 282 283 283 283 283 284 285 285 285 284 285 285 285 285 285 285 285 285 286
251 254 257 257 260 260 261 260 261 262 265 267 270 272 272 272 273 275 277 278 278 279 279 280 281 282 282 282 282 283 283 283 283 284 284 284 283 284 284 284 284 284 284
254 255 258 260 261 262 264 264 264 267 270 271 271 273 274 274 274 275 276 279 279 280 280 280 281 281 282 283 283 283 283 283 283 284 284 283 283 283 283 283 283 283 283
257 258 260 263 264 265 266 267 269 271 272 271 273 274 274 274 275 276 277 278 279 279 280 280 281 282 282 283 283 283 283 282 283 283 283 283 282 282 282 281 281 281 282
260 261 261 263 266 269 271 271 272 274 273 274 275 276 276 276 276 277 277 278 278 280 281 281 281 282 283 283 283 283 283 282 282 283 283 282 281 281 280 280 280 280 281
262 262 264 265 268 270 272 272 273 275 276 276 277 278 278 278 278 279 278 278 278 279 280 280 281 282 283 282 282 282 282 282 283 282 282 282 280 280 280 280 279 279 280
263 267 272 272 272 274 274 275 277 278 279 280 279 279 279 279 279 279 279 279 280 281 281 282 283 284 283 283 282 282 283 283 283 282 282 281 280 280 280 280 279 279 280
267 269 272 273 273 277 278 279 280 281 282 281 281 280 280 280 280 280 279 280 281 282 282 282 283 284 284 284 284 283 283 283 282 282 281 281 280 280 280 281 281 280 280
268 270 272 274 277 278 280 281 281 281 283 283 282 282 282 280 281 281 281 281 282 282 283 283 284 285 285 284 284 284 283 283 283 282 282 281 280 280 280 280 280 279 278
271 271 273 276 277 278 280 281 283 284 284 284 283 283 283 282 283 284 282 282 283 284 284 284 284 284 285 285 285 284 284 283 283 282 282 282 281 280 280 279 278 277 277
275 277 276 278 279 280 281 283 285 285 284 283 284 284 284 283 283 284 284 284 285 285 285 284 284 285 284 285 285 284 285 284 283 282 282 282 282 280 280 279 278 277 276
278 280 281 282 282 283 284 285 285 285 284 283 284 284 284 284 285 285 285 286 286 286 286 286 286 286 286 286 286 286 285 285 284 283 282 283 282 281 280 278 277 276 275
281 282 282 284 284 284 285 286 286 286 286 285 286 286 285 285 286 287 287 288 288 287 287 287 288 288 287 287 287 287 286 286 285 284 284 283 282 282 280 279 277 276 275
283 284 284 285 285 286 286 286 286 286 287 287 287 288 288 288 287 288 288 288 288 288 288 288 288 287 288 288 288 288 287 287 287 286 285 284 283 282 281 279 277 275 274
285 285 285 285 285 285 286 286 286 287 287 287 288 288 288 288 289 289 290 289 289 289 289 288 288 288 288 288 289 289 288 288 287 287 286 284 283 281 279 278 276 274 274
287 286 286 286 286 287 288 288 288 288 288 288 288 288 288 288 289 289 289 289 289 289 289 290 290 290 290 291 291 290 289 288 287 287 286 285 282 281 279 277 275 273 272
288 288 288 288 288 288 289 289 289 288 288 288 288 289 289 289 290 290 289 289 289 290 290 291 292 292 292 292 291 290 289 288 288 287 286 284 282 280 279 278 276 274 271
290 290 290 290 291 290 290 290 291 291 290 290 291 291 291 291 291 291 290 291 291 291 291 292 293 294 294 293 292 290 289 288 289 288 286 285 284 282 280 279 277 273 270
292 292 292 292 292 292 291 292 292 292 292 292 293 293 293 293 293 292 292 292 293 293 293 294 294 295 295 294 293 292 291 290 290 289 288 286 284 283 281 279 276 274 273
Height
5844 5847 5849 5851 5853 5855 5857 5858 5860 5862 5864 5865 5866 5866 5867 5867 5867 5867 5867 5867 5867 5866 5865 5864 5863 5862 5861 5859 5858 5856 5855 5853 5852 5850 5848 5846 5845 5843 5840 5838 5836 5834 5832
5844 5846 5847 5849 5851 5853 5854 5856 5858 5860 5861 5862 5862 5863 5863 5863 5863 5863 5863 5862 5862 5861 5860 5859 5858 5856 5855 5854 5852 5851 5849 5847 5845 5844 5842 5840 5838 5836 5834 5832 5830 5828 5825
5842 5844 5845 5847 5848 5850 5852 5853 5855 5856 5857 5858 5858 5859 5859 5859 5858 5858 5858 5857 5856 5855 5854 5853 5852 5851 5849 5847 5846 5844 5842 5840 5839 5837 5835 5833 5831 5829 5827 5825 5823 5820 5818
5839 5841 5843 5844 5846 5847 5848 5850 5851 5852 5853 5853 5853 5853 5853 5853 5853 5852 5852 5851 5850 5849 5848 5847 5845 5844 5842 5840 5838 5837 5835 5833 5831 5829 5828 5825 5824 5822 5819 5817 5815 5813 5811
5836 5838 5839 5841 5842 5843 5844 5845 5846 5847 5847 5847 5847 5847 5847 5847 5846 5846 5845 5844 5843 5842 5841 5839 5838 5836 5834 5833 5831 5829 5827 5825 5823 5821 5819 5817 5815 5813 5811 5809 5807 5804 5802
5833 5834 5836 5837 5838 5839 5839 5840 5841 5841 5841 5841 5841 5840 5840 5839 5839 5838 5838 5837 5835 5834 5833 5831 5830 5828 5826 5824 5822 5821 5819 5817 5815 5813 5811 5808 5806 5804 5802 5800 5798 5795 5793
5829 5830 5831 5832 5832 5833 5834 5834 5834 5834 5834 5834 5833 5833 5833 5832 5831 5830 5829 5828 5827 5826 5824 5822 5821 5819 5817 5815 5813 5811 5809 5807 5805 5803 5801 5799 5796 5794 5792 5790 5787 5785 5783
5824 5825 5825 5826 5826 5826 5826 5826 5826 5826 5827 5826 5825 5825 5824 5823 5822 5822 5820 5819 5818 5816 5815 5813 5811 5809 5807 5806 5804 5801 5799 5797 5795 5793 5791 5788 5786 5783 5781 5779 5776 5774 5772
5818 5819 5819 5819 5819 5818 5819 5819 5819 5819 5818 5817 5817 5816 5815 5814 5813 5812 5811 5810 5808 5807 5805 5803 5801 5799 5797 5795 5793 5791 5789 5786 5784 5781 5779 5777 5775 5772 5769 5767 5765 5762 5761
5811 5812 5812 5812 5812 5811 5811 5811 5811 5810 5810 5809 5809 5807 5806 5805 5804 5803 5801 5799 5798 5796 5794 5792 5790 5788 5786 5784 5781 5779 5777 5775 5772 5770 5768 5765 5762 5760 5757 5754 5752 5750 5748
5804 5804 5804 5804 5804 5804 5803 5803 5803 5802 5801 5801 5800 5798 5797 5796 5794 5793 5791 5790 5788 5786 5783 5781 5779 5776 5774 5772 5769 5767 5765 5762 5760 5758 5755 5753 5750 5747 5744 5741 5738 5736 5734
5797 5796 5797 5796 5796 5795 5795 5795 5794 5793 5792 5791 5790 5788 5787 5785 5784 5782 5780 5779 5777 5774 5772 5770 5767 5764 5762 5759 5757 5754 5751 5749 5746 5744 5741 5739 5735 5732 5729 5726 5724 5721 5719
5788 5788 5788 5787 5788 5787 5787 5786 5785 5784 5782 5781 5780 5778 5777 5775 5773 5771 5769 5766 5764 5762 5760 5757 5754 5752 5749 5746 5743 5740 5737 5734 5731 5729 5726 5723 5720 5717 5714 5711 5708 5705 5703
5780 5779 5778 5778 5778 5778 5777 5776 5775 5773 5771 5770 5768 5767 5765 5763 5761 5759 5756 5754 5751 5749 5746 5744 5741 5738 5734 5731 5728 5724 5721 5718 5715 5713 5710 5707 5703 5700 5697 5693 5691 5688 5686
5770 5770 5769 5768 5768 5767 5767 5766 5764 5763 5761 5759 5757 5755 5753 5751 5748 5746 5743 5741 5738 5735 5732 5729 5726 5722 5719 5715 5712 5708 5704 5701 5697 5694 5692 5689 5686 5682 5679 5675 5672 5670 5668
5762 5761 5761 5760 5759 5758 5757 5755 5753 5751 5749 5747 5745 5743 5740 5738 5735 5732 5729 5726 5723 5720 5717 5713 5710 5706 5703 5699 5695 5691 5687 5684 5680 5676 5673 5670 5667 5664 5661 5658 5654 5652 5650
5753 5752 5751 5750 5748 5747 5746 5744 5742 5740 5737 5735 5732 5730 5727 5724 5721 5718 5715 5712 5708 5704 5701 5698 5694 5690 5686 5682 5678 5675 5671 5666 5662 5658 5655 5652 5648 5646 5643 5640 5637 5635 5633
5744 5743 5741 5740 5738 5736 5734 5732 5730 5727 5725 5722 5719 5716 5713 5710 5707 5703 5700 5696 5693 5689 5685 5682 5678 5674 5670 5666 5661 5657 5653 5649 5645 5640 5637 5633 5630 5627 5625 5622 5620 5618 5616
5735 5734 5731 5730 5728 5725 5723 5720 5718 5715 5712 5709 5706 5703 5700 5696 5692 5689 5685 5681 5677 5673 5669 5665 5661 5657 5653 5649 5644 5640 5636 5632 5627 5623 5620 5616 5613 5610 5607 5605 5603 5602 5600
5725 5724 5721 5719 5716 5714 5711 5708 5705 5702 5699 5695 5692 5689 5685 5682 5678 5674 5669 5665 5661 5657 5653 5649 5645 5641 5636 5632 5628 5623 5619 5615 5611 5607 5603 5600 5597 5594 5591 5589 5588 5586 5585
5715 5713 5710 5707 5704 5701 5698 5695 5691 5688 5684 5681 5677 5673 5670 5666 5662 5658 5654 5650 5646 5641 5637 5633 5629 5625 5620 5616 5612 5607 5603 5599 5595 5591 5588 5585 5582 5579 5577 5575 5573 5572 5571
5704 5701 5698 5695 5691 5688 5685 5681 5677 5673 5670 5666 5662 5658 5655 5651 5647 5643 5639 5634 5630 5625 5621 5617 5613 5609 5604 5600 5596 5592 5588 5584 5580 5576 5573 5570 5567 5565 5563 5561 5560 5559 5558
5691 5688 5685 5681 5678 5674 5670 5667 5663 5659 5655 5651 5647 5643 5639 5635 5631 5627 5623 5619 5614 5610 5605 5601 5597 5593 5589 5585 5581 5577 5573 5569 5565 5561 5558 5555 5553 5551 5550 5548 5547 5546 5546
5678 5674 5671 5667 5664 5660 5656 5652 5648 5644 5641 5637 5633 5629 5624 5620 5616 5612 5608 5604 5600 5596 5591 5587 5583 5579 5575 5571 5567 5563 5559 5555 5552 5549 5545 5543 5540 5539 5537 5536 5535 5534 5534
5665 5661 5657 5654 5650 5646 5642 5638 5634 5630 5626 5622 5618 5614 5610 5606 5602 5598 5594 5590 5586 5582 5578 5574 5570 5566 5562 5558 5554 5550 5546 5543 5540 5537 5534 5532 5529 5528 5526 5525 5524 5523 5523
5651 5648 5644 5640 5636 5632 5628 5624 5620 5616 5613 5609 5605 5601 5596 5592 5588 5584 5581 5577 5573 5569 5565 5561 5557 5553 5549 5545 5542 5539 5536 5533 5530 5527 5524 5522 5520 5518 5517 5515 5514 5514 5514